[TLELIST] Archives

 

[list_settings.list_name] Current TLEs

February 19th 2012 PST

HST 1 20580U 90037B 12050.14770571 .00001508 00000-0 99262-4 0 9462 2 20580 028.4678 202.3613 0003217 230.7080 129.3190 15.02193695996811 ISS (ZARYA) 1 25544U 98067A 12050.46757066 .00020349 00000-0 25941-3 0 396 2 25544 051.6436 357.5013 0020524 061.2035 043.5477 15.59049540759509 CXO 1 25867U 99040B 12049.91666667 -.00000405 00000-0 00000+0 0 7035 2 25867 071.4426 013.6385 8746870 277.8713 357.9098 00.37802079 8707 ____________________________________________________________________ These 2-Line ...Continue Reading

[list_settings.list_name] Current TLEs

February 18th 2012 PST

HST 1 20580U 90037B 12046.82577986 .00001290 00000-0 83076-4 0 9449 2 20580 028.4681 224.0934 0003442 192.6736 167.3883 15.02183651996313 ISS (ZARYA) 1 25544U 98067A 12049.32438828 .00016470 00000-0 21153-3 0 325 2 25544 051.6430 003.2375 0020757 056.3284 108.0372 15.59019009759326 CXO 1 25867U 99040B 12049.91666667 -.00000405 00000-0 00000+0 0 7035 2 25867 071.4426 013.6385 8746870 277.8713 357.9098 00.37802079 8707 ____________________________________________________________________ These 2-Line ...Continue Reading

[list_settings.list_name] Current TLEs

February 17th 2012 PST

HST 1 20580U 90037B 12046.82577986 .00001290 00000-0 83076-4 0 9449 2 20580 028.4681 224.0934 0003442 192.6736 167.3883 15.02183651996313 ISS (ZARYA) 1 25544U 98067A 12048.35794172 .00031646 00000-0 39984-3 0 260 2 25544 051.6419 008.0930 0020635 051.5779 085.0961 15.59004941759174 CXO 1 25867U 99040B 12049.91666667 -.00000405 00000-0 00000+0 0 7035 2 25867 071.4426 013.6385 8746870 277.8713 357.9098 00.37802079 8707 ____________________________________________________________________ These 2-Line ...Continue Reading

[list_settings.list_name] Current TLEs

February 16th 2012 PST

HST 1 20580U 90037B 12046.82577986 .00001290 00000-0 83076-4 0 9449 2 20580 028.4681 224.0934 0003442 192.6736 167.3883 15.02183651996313 ISS (ZARYA) 1 25544U 98067A 12047.33482958 .00014139 00000-0 18312-3 0 218 2 25544 051.6430 013.2289 0020576 050.4414 100.3868 15.58944563759012 CXO 1 25867U 99040B 12047.25000000 -.00000612 00000-0 00000+0 0 7022 2 25867 071.4218 013.8048 8746504 277.8541 354.9872 00.37804714 8690 ____________________________________________________________________ These 2-Line ...Continue Reading

[list_settings.list_name] Current TLEs

February 15th 2012 PST

HST 1 20580U 90037B 12044.89904863 .00001055 00000-0 65693-4 0 9435 2 20580 028.4684 236.6941 0003400 171.5622 188.4985 15.02178724996027 ISS (ZARYA) 1 25544U 98067A 12046.37568359 .00011191 00000-0 14657-3 0 135 2 25544 051.6432 018.0460 0020576 046.8532 117.5159 15.58911835758869 CXO 1 25867U 99040B 12047.25000000 -.00000612 00000-0 00000+0 0 7022 2 25867 071.4218 013.8048 8746504 277.8541 354.9872 00.37804714 8690 ____________________________________________________________________ These 2-Line ...Continue Reading

[list_settings.list_name] Current TLEs

February 14th 2012 PST

HST 1 20580U 90037B 12044.89904863 .00001055 00000-0 65693-4 0 9435 2 20580 028.4684 236.6941 0003400 171.5622 188.4985 15.02178724996027 ISS (ZARYA) 1 25544U 98067A 12045.40919830 .00011306 00000-0 14815-3 0 79 2 25544 051.6429 022.8988 0020360 043.9913 092.8161 15.58890075758719 CXO 1 25867U 99040B 12044.62500000 -.00000645 00000-0 00000+0 0 7010 2 25867 071.3976 014.0159 8744866 277.8213 357.7480 00.37809779 8682 ____________________________________________________________________ These 2-Line ...Continue Reading

[list_settings.list_name] Current TLEs

February 13th 2012 PST

HST 1 20580U 90037B 12043.90246310 .00001059 00000-0 65978-4 0 9421 2 20580 028.4685 243.2126 0003624 165.0031 195.0712 15.02176977995879 ISS (ZARYA) 1 25544U 98067A 12044.50423730 .00010156 00000-0 13388-3 0 18 2 25544 051.6424 027.4392 0020396 039.9632 054.8576 15.58868453758573 CXO 1 25867U 99040B 12044.62500000 -.00000645 00000-0 00000+0 0 7010 2 25867 071.3976 014.0159 8744866 277.8213 357.7480 00.37809779 8682 ____________________________________________________________________ These 2-Line ...Continue Reading

[list_settings.list_name] Current TLEs

February 12th 2012 PST

HST 1 20580U 90037B 12040.97913594 .00001106 00000-0 69463-4 0 9415 2 20580 028.4698 262.3315 0003504 136.6329 223.4577 15.02171516995437 ISS (ZARYA) 1 25544U 98067A 12043.42665610 .00010338 00000-0 13626-3 0 9952 2 25544 051.6423 032.8496 0020467 035.8261 127.7098 15.58846224758402 CXO 1 25867U 99040B 12044.62500000 -.00000645 00000-0 00000+0 0 7010 2 25867 071.3976 014.0159 8744866 277.8213 357.7480 00.37809779 8682 ____________________________________________________________________ These 2-Line ...Continue Reading

[list_settings.list_name] Current TLEs

February 11th 2012 PST

HST 1 20580U 90037B 12040.97913594 .00001106 00000-0 69463-4 0 9415 2 20580 028.4698 262.3315 0003504 136.6329 223.4577 15.02171516995437 ISS (ZARYA) 1 25544U 98067A 12042.39776853 .00010660 00000-0 14040-3 0 9891 2 25544 051.6418 038.0136 0020527 031.8220 113.9517 15.58824712758246 CXO 1 25867U 99040B 12042.00000000 -.00000461 00000-0 00000+0 0 7000 2 25867 071.3710 014.2129 8740106 277.8034 000.4901 00.37803670 8674 ____________________________________________________________________ These 2-Line ...Continue Reading

[list_settings.list_name] Current TLEs

February 10th 2012 PST

HST 1 20580U 90037B 12040.97913594 .00001106 00000-0 69463-4 0 9415 2 20580 028.4698 262.3315 0003504 136.6329 223.4577 15.02171516995437 ISS (ZARYA) 1 25544U 98067A 12041.49896845 .00010690 00000-0 14089-3 0 9824 2 25544 051.6418 042.5264 0020375 028.3701 110.2240 15.58805008758109 CXO 1 25867U 99040B 12042.00000000 -.00000461 00000-0 00000+0 0 7000 2 25867 071.3710 014.2129 8740106 277.8034 000.4901 00.37803670 8674 ____________________________________________________________________ These 2-Line ...Continue Reading
  • This mailing list is a public mailing list - anyone may join or leave, at any time.
  • This mailing list is announce-only.

International Space Station (ISS) / Hubble Space Telescope (HST) / Chandra X-Ray Observatory Orbital Data via EMAIL

Privacy Policy:

Private list